TimeAKDT,TemperatureF,Dew PointF,Humidity,Sea Level PressureIn,VisibilityMPH,Wind Direction,Wind SpeedMPH,Gust SpeedMPH,PrecipitationIn,Events,Conditions,WindDirDegrees,DateUTC
12:01 AM,25.0,19.9,81,30.05,10.0,South,4.6,-,N/A,,Unknown,180,2013-05-11 08:01:00
1:01 AM,24.1,19.0,81,30.04,10.0,South,5.8,-,N/A,,Unknown,190,2013-05-11 09:01:00
2:01 AM,18.0,15.1,88,30.04,10.0,NE,3.5,-,N/A,,Unknown,50,2013-05-11 10:01:00
3:01 AM,17.1,15.1,92,30.03,10.0,East,6.9,-,N/A,,Unknown,90,2013-05-11 11:01:00
4:01 AM,16.0,12.9,88,30.01,10.0,Calm,Calm,-,N/A,,Unknown,0,2013-05-11 12:01:00
5:01 AM,17.1,14.0,88,30.00,10.0,Calm,Calm,-,N/A,,Unknown,0,2013-05-11 13:01:00
6:01 AM,18.0,14.0,84,29.98,10.0,Calm,Calm,-,N/A,,Unknown,0,2013-05-11 14:01:00
7:01 AM,19.0,12.9,77,29.97,10.0,SSE,4.6,-,N/A,,Unknown,160,2013-05-11 15:01:00
8:01 AM,21.0,15.1,78,29.96,10.0,SSE,3.5,-,N/A,,Unknown,160,2013-05-11 16:01:00
9:01 AM,26.1,19.0,75,29.96,10.0,Calm,Calm,-,N/A,,Unknown,0,2013-05-11 17:01:00
10:01 AM,30.0,21.9,72,29.95,10.0,Calm,Calm,-,N/A,,Unknown,0,2013-05-11 18:01:00
11:01 AM,26.1,19.9,78,29.94,10.0,West,6.9,-,N/A,,Unknown,260,2013-05-11 19:01:00
12:01 PM,25.0,19.0,78,29.94,10.0,WSW,8.1,-,N/A,,Unknown,250,2013-05-11 20:01:00
1:01 PM,27.0,21.9,81,29.93,10.0,WSW,6.9,-,N/A,,Unknown,250,2013-05-11 21:01:00
2:01 PM,30.0,24.1,79,29.92,10.0,West,8.1,-,N/A,,Unknown,280,2013-05-11 22:01:00
3:01 PM,30.9,24.1,76,29.91,10.0,West,6.9,-,N/A,,Unknown,280,2013-05-11 23:01:00
4:01 PM,30.9,25.0,79,29.90,10.0,West,8.1,-,N/A,,Unknown,280,2013-05-12 00:01:00
5:01 PM,33.1,26.1,75,29.89,10.0,West,6.9,-,N/A,,Unknown,260,2013-05-12 01:01:00
6:01 PM,34.0,26.1,73,29.88,10.0,West,9.2,-,N/A,,Unknown,280,2013-05-12 02:01:00
7:01 PM,33.1,26.1,75,29.87,10.0,West,4.6,-,N/A,,Unknown,260,2013-05-12 03:01:00
8:01 PM,30.9,27.0,85,29.85,10.0,West,8.1,-,N/A,,Unknown,260,2013-05-12 04:01:00
9:01 PM,28.9,25.0,85,29.84,10.0,SSW,5.8,-,N/A,,Unknown,210,2013-05-12 05:01:00
10:01 PM,28.0,26.1,92,29.83,10.0,SW,3.5,-,N/A,,Unknown,230,2013-05-12 06:01:00
11:01 PM,28.0,26.1,92,29.82,10.0,SSW,4.6,-,N/A,,Unknown,210,2013-05-12 07:01:00